Flag for Greece Weather past 2 weeks in Rhodes, Rhodes, Greece

Now
79 °F

Clear.


Feels Like: 80 °F
Forecast: 75 / 85 °F
Wind: No wind

Location: Rhodes Airport

Current Time: Aug 31, 2015 at 3:50:02 AM

Latest Report: Aug 31, 2015 at 2:50 AM


Visibility: 10 mi

Pressure: 29.86 "Hg

Humidity: 48%

Dew point: 57 °F

Location of RhodesLocation

Historic Weather in Rhodes — Graph

°F

Rhodes temperature yesterday

Maximum temperature yesterday: 90 °F (at 3:50 PM)
Minimum temperature yesterday: 75 °F (at 5:20 AM)
Average temperature yesterday: 83 °F

Past Weeks' High & Low Weather Summary

 TemperatureHumidityPressure
High90 °F (Aug 18, 3:50 PM)89% (Aug 17, 11:50 PM)29.92 "Hg (Aug 17, 11:50 PM)
Low75 °F (Aug 27, 6:50 AM)36% (Aug 30, 3:50 PM)29.68 "Hg (Aug 22, 5:20 AM)
Average82 °F66%29.78 "Hg
* Reported Aug 16 2:20 AM — Aug 31 2:50 AM, Rhodes, Weather by CustomWeather, © 2015

Note: Actual official high and low records may vary slightly from our data, if they occured in-between our weather recording intervals... More about our weather records

Advertising

Rhodes weather history for previous 24 hours

 ConditionsComfort  
Time TempWeatherWind HumidityBarometerVisibility
2:50 AM
Mon, Aug 31
79 °FClear.No wind48%29.86 "Hg10 mi
2:20 AM79 °FClear.No wind51%29.86 "Hg10 mi
1:50 AM79 °FClear.No wind51%29.86 "Hg10 mi
12:20 AM82 °FClear.No wind42%29.86 "Hg10 mi
11:50 PM
Sun, Aug 30
82 °FClear.No wind42%29.86 "Hg10 mi
11:20 PM82 °FClear.No wind45%29.86 "Hg10 mi
10:50 PM82 °FClear.No wind45%29.86 "Hg10 mi
10:20 PM82 °FClear.9 mph45%29.86 "Hg10 mi
9:50 PM82 °FClear.9 mph45%29.86 "Hg10 mi
9:20 PM84 °FClear.10 mph43%29.83 "Hg10 mi
8:50 PM84 °FClear.10 mph43%29.83 "Hg10 mi
8:20 PM86 °FSunny.12 mph40%29.83 "Hg10 mi
7:50 PM86 °FSunny.12 mph38%29.83 "Hg10 mi
7:20 PM88 °FSunny.14 mph43%29.83 "Hg10 mi
6:50 PM88 °FSunny.15 mph43%29.83 "Hg10 mi
6:20 PM88 °FSunny.15 mph40%29.83 "Hg10 mi
5:50 PM88 °FSunny.15 mph40%29.83 "Hg10 mi
5:20 PM90 °FSunny.15 mph36%29.86 "Hg10 mi
4:50 PM90 °FSunny.15 mph36%29.86 "Hg10 mi
4:20 PM90 °FSunny.16 mph36%29.86 "Hg10 mi
3:50 PM90 °FSunny.16 mph36%29.86 "Hg10 mi
3:20 PM88 °FSunny.16 mph40%29.86 "Hg10 mi
2:50 PM88 °FSunny.15 mph40%29.89 "Hg10 mi
2:20 PM88 °FSunny.14 mph40%29.89 "Hg10 mi
1:50 PM88 °FSunny.12 mph40%29.89 "Hg10 mi
1:20 PM88 °FSunny.10 mph40%29.89 "Hg10 mi
12:50 PM88 °FSunny.10 mph40%29.89 "Hg10 mi
12:20 PM88 °FSunny.9 mph38%29.89 "Hg10 mi
11:50 AM88 °FSunny.9 mph38%29.89 "Hg10 mi
11:20 AM86 °FSunny.8 mph43%29.89 "Hg10 mi
10:50 AM86 °FSunny.8 mph43%29.89 "Hg10 mi
10:20 AM82 °FSunny.6 mph51%29.89 "Hg10 mi
9:50 AM82 °FSunny.6 mph51%29.89 "Hg10 mi
9:20 AM81 °FSunny.5 mph51%29.89 "Hg10 mi
8:50 AM81 °FSunny.5 mph51%29.89 "Hg10 mi
8:20 AM77 °FSunny.No wind61%29.89 "Hg10 mi
7:50 AM77 °FSunny.No wind61%29.89 "Hg10 mi
7:20 AM75 °FClear.No wind65%29.89 "Hg10 mi
6:50 AM75 °FClear.2 mph65%29.86 "Hg10 mi
6:20 AM75 °FClear.1 mph61%29.86 "Hg10 mi
5:50 AM75 °FClear.No wind61%29.86 "Hg10 mi
5:20 AM75 °FClear.No wind61%29.86 "Hg10 mi
4:50 AM77 °FClear.1 mph57%29.86 "Hg10 mi
4:20 AM79 °FClear.1 mph58%29.86 "Hg10 mi
3:50 AM79 °FClear.1 mph58%29.86 "Hg10 mi
3:20 AM79 °FClear.1 mph58%29.86 "Hg10 mi
Weather by CustomWeather, © 2015

See weather overviewHow to use our weather pages